Showing default

ICEYE-X76, 68502

Orbit data source: Space-Track

ICEYE-X76, 68502 is a payload satellite owned by ICEYE (PL) in SSO that was launched on Mon, 30 Mar 2026 UTC via an FALCON 9 launch vehicle from the Air Force Western Test Range (AFWTR). Payload-class satellites include a variety of spacecraft equipped with specific instruments for various scientific and technological missions. These include communications satellites like Starlink; space stations such as the ISS; scientific satellites like the Hubble; Earth observation satellites from companies like Planet Labs, Umbra, and HawkEye 360; GPS; miniature CubeSats for education and research; and military/defense satellites.

Loading next visibility...
Identifier
68502, 2026-067CQ
Orbit
SSO
Country
Flag of PLPL / POL
Related business
Manufacturer
ICEYE
Mission
Operational spacecraft
Bus & Motor
ICEYE, Unknown motor
Mass
120 kg wet, 120 kg dry
Launch date (UTC)
2026-03-30 (1 month ago)
Launch vehicle
FALCON 9
Launch site
Air Force Western Test Range (AFWTR)
Object type
Payload
Rocket body
Debris
Shape & HBR
Unknown shape, 14.5 m
Radar Cross Section
RCS unknown

Expand to show TLE details & history
Last TLE update: 11 hours ago

TLE from 11 hours ago
0 ICEYE-X76
1 68502U 26067CQ  26127.13683852  .00001944  00000-0  19934-3 0  9993
2 68502  97.7599  86.0316 0003096 120.6965 239.4559 14.91584575  5607
Epoch: 2026-05-07T03:17Z
TLE epoch observation values (Epoch: 2026-05-07T03:17:02.848Z)
Latitude
-0°
Longitude
171.78243°
Altitude
597.133 km
Speed
7.561 km/s
True Right ascension
05h 44m 07s
True Declination
0° 00' 00"
Sunlit
Object was in daylight at epoch
Visualization orbit readout
Latitude
Unknown
Longitude
Unknown
Altitude
Unknown
Speed
Unknown
Apparent Right ascension
Unknown
Apparent Declination
Unknown
Sunlit
N/A
Visualization observer readout
Local Sidereal Time
22:04:47
Azimuth
Unknown
Elevation
Unknown
Doppler factor
Unknown
Orbital elements
Apogee altitude
592.171 km
Perigee altitude
587.856 km
Semi-major axis
6,968.15 km
Eccentricity
0.00031
Inclination
97.7599°
RAAN
86.0316°
Arg. of periapsis
120.6965°
True anomaly
239.42535°
Mean anomaly
239.4559°
Eccentric anomaly
239.44063°
Mean motion
3.73136 °/min
Orbital period
96.48 mins
BSTAR
0.00019934
Loading maneuver chart data...
Computing Atmospheric mass density...
Loading historical data...
Loading historical data...
Loading historical data...
Loading historical data...
Loading historical data...
Loading historical data...
Loading historical data...

Documentation

Showing up to 5 results
|